Location: Lake Silverstone Mobile Home Park
(40.8887°N, 82.3068°W)
Time: 04:29:04
(UTC+00:00)

Daily predictions for brighter satellites

Satellite Brightness Start Highest point End
(mag) Time Altitude Azimuth Time Altitude Azimuth Time Altitude Azimuth
ISS -2.1 00:00:15 10° NW 00:02:04 27° NNW 00:02:04 27° NNW
Cosmos 2266 Rocket 4.0 00:00:08 10° N 00:06:27 60° E 00:12:46 10° SSE
SL-16 R/B 3.3 00:01:57 10° N 00:05:05 27° NNE 00:05:05 27° NNE
Cosmos 2082 Rocket 3.1 00:02:07 10° SW 00:07:34 46° WNW 00:11:58 16° N
ATLAS 5 CENTAUR R/B 3.7 00:05:18 10° NNW 00:08:17 22° N 00:08:17 22° N
Meteor 2-15 Rocket 4.3 00:06:52 10° S 00:12:56 69° E 00:15:51 32° NNE
Cosmos 1328 Rocket 4.3 00:12:37 10° SSW 00:16:57 53° W 00:19:19 25° NNW
CZ-2C R/B 3.2 00:17:26 10° SW 00:19:37 20° S 00:19:37 20° S
Meteor 1-27 Rocket 4.3 00:15:34 10° S 00:19:10 39° SSE 00:19:10 39° SSE
Cosmos 2278 3.8 00:15:24 10° NNW 00:21:06 73° WSW 00:26:44 10° SSE
Lacrosse 5 rocket 3.6 00:18:07 10° NNW 00:18:55 15° NNW 00:18:55 15° NNW
ARGOS 4.1 00:21:59 10° S 00:27:12 48° W 00:32:26 10° NNW
IRAS Rocket 4.2 00:28:34 66° SSE 00:28:34 66° SSE 00:33:26 10° S
COSMOS 2455 4.4 00:27:53 10° WSW 00:33:05 30° NW 00:36:35 18° N
SL-08 RB Rocket 4.5 00:29:07 10° S 00:33:38 52° W 00:38:09 10° NNW
Cosmos 1655 Rocket 4.2 00:32:39 10° N 00:39:03 73° W 00:45:22 10° S
DMSP B5D2-2 4.2 00:40:33 70° W 00:40:33 70° W 00:45:38 10° SSW
GEOS 3 Rocket 4.3 00:46:40 48° NW 00:46:40 48° NW 00:50:21 10° NW
CZ-4C R/B 3.8 01:09:48 10° NW 01:17:05 49° WSW 01:21:47 25° S
CENTAUR R/B 4.4 08:51:33 24° NE 08:51:33 24° NE 08:54:17 10° NE
Cosmos 2344 4.2 09:14:06 45° NNE 09:14:06 45° NNE 09:19:09 10° NE
USA 238 DEB 3.9 09:40:07 56° NNE 09:40:07 56° NNE 09:45:22 10° NE
USA 238 3.9 09:40:11 57° NNE 09:40:11 57° NNE 09:45:29 10° NE
BREEZE-M DEB (TANK) 3.8 09:43:04 52° ENE 09:43:04 52° ENE 09:52:10 10° ESE
USA 215 4.3 09:43:16 10° E 09:49:00 34° NNE 09:50:35 30° N
Cosmos 921 Rocket 4.5 09:53:48 35° ENE 09:53:50 35° ENE 09:57:56 10° SE
Cosmos 1867 3.8 10:03:11 59° SSE 10:03:11 59° SSE 10:07:34 10° SSE
Cosmos 2208 Rocket 4.1 10:02:49 71° SSE 10:02:49 71° SSE 10:07:35 10° SSE
Cosmos 2369 Rocket 2.3 10:05:54 32° S 10:08:32 72° ESE 10:14:07 10° NNE
NOSS 3-3 (A) 4.5 10:11:42 49° NW 10:14:09 74° WSW 10:22:43 10° SSE
NOSS 3-3 (C) 4.5 10:11:46 48° NW 10:14:15 74° WSW 10:22:48 10° SSE
Cosmos 1486 Rocket 4.2 10:09:52 10° S 10:15:08 69° ESE 10:20:23 10° NNE
Cosmos 1656 Rocket 3.8 10:19:37 10° SSW 10:24:58 70° ESE 10:30:24 10° NNE
Iridium 2 4.1 10:22:24 10° S 10:26:07 62° E 10:26:47 51° NE
COSMO-SKYMED 1 3.0 10:28:19 10° SSE 10:32:36 61° ENE 10:35:30 20° N
Cosmos 1943 Rocket 3.4 10:35:16 26° NNW 10:35:16 26° NNW 10:38:17 10° N
CZ-2C R/B 2.9 10:28:36 10° SSE 10:34:04 69° ENE 10:39:26 10° N
CENTAUR R/B 3.3 10:38:46 32° NW 10:38:50 32° NW 10:45:06 10° NNE
Envisat 2.9 10:35:35 10° NNE 10:40:42 88° WNW 10:45:47 10° SSW
TSX-5 4.3 10:38:24 33° NNW 10:40:59 85° WSW 10:45:30 10° SSE
Cosmos 968 Rocket 4.2 10:45:20 34° NW 10:45:20 34° NW 10:48:58 10° N
Cosmos 2098 Rocket 2.8 10:41:24 10° SSW 10:45:10 76° W 10:49:59 10° N
DELTA 2 R/B (1) 3.8 10:47:13 30° WSW 10:49:55 66° SSE 10:55:25 10° E
Genesis I 3.8 10:52:06 41° WSW 10:52:06 41° WSW 10:55:46 10° S
Cosmos 2279 Rocket 3.9 10:48:05 10° N 10:54:19 89° E 11:00:30 10° S
SKYMED 3 4.4 10:52:22 10° S 10:56:41 72° W 10:59:53 18° NNW
NOSS 3-2 (C) 4.1 11:00:55 27° WNW 11:02:00 29° NW 11:07:33 10° NNE
Cosmos 1812 3.0 11:03:50 38° WNW 11:04:38 44° W 11:08:17 10° SSW
CBERS 1 LM4 rocket 4.4 11:01:25 10° N 11:06:14 62° WNW 11:11:12 10° SSW
Cosmos 1515 Rocket 4.3 11:02:38 10° N 11:06:55 54° E 11:11:09 10° SSE
MOS 1-B Rocket 4.2 11:00:49 10° S 11:06:59 46° W 11:12:32 10° NNW
ATLAS 3B R/B 3.8 11:01:02 10° S 11:07:06 44° ESE 11:13:25 10° NE
Cosmos 1354 Rocket 3.9 11:03:20 10° SSW 11:08:36 83° WNW 11:13:56 10° NNE
SJ 16-02 2.6 11:05:33 10° S 11:09:42 44° ESE 11:13:52 10° NNE
Cosmos 1634 Rocket 4.3 11:05:05 10° NNW 11:10:56 42° W 11:16:42 10° SSW
Meteor PRIRODA 4.3 11:08:24 10° NNE 11:11:58 55° E 11:15:31 10° S
ADEOS 3.5 11:09:38 10° NNE 11:14:54 85° WNW 11:20:07 10° SSW
CZ-4B R/B 4.4 11:11:32 10° N 11:15:48 45° WNW 11:20:03 10° SW
Landsat 5 3.7 11:13:15 10° S 11:17:40 56° W 11:22:06 10° NNW
Meteor 2-6 Rocket 4.1 11:12:39 10° NNW 11:17:57 59° W 11:23:13 10° S
CZ-4C R/B 2.6 11:16:44 10° S 11:19:50 64° WSW 11:22:17 15° NNW
SKYMED 2 4.1 11:16:40 10° SSW 11:20:42 38° W 11:24:07 14° NNW
SL-8 R/B 3.9 11:17:47 22° NW 11:20:50 65° NNE 11:25:35 10° ESE
ATLAS 5 CENTAUR R/B 1.9 11:17:26 10° SSW 11:21:07 57° ESE 11:25:09 10° NE
Cosmos 1500 Rocket 4.2 11:19:47 10° S 11:24:09 59° E 11:28:33 10° NNE
Meteor 1-31 Rocket 3.5 11:23:25 10° N 11:26:53 31° WNW 11:30:20 10° SW
CZ-2C R/B 3.0 11:22:39 10° NNE 11:27:34 85° ESE 11:32:41 10° SSW
Meteor 2-15 4.4 11:22:38 10° NNW 11:28:41 75° W 11:34:42 10° S
SJ-7 4.4 11:26:56 10° N 11:31:06 66° WNW 11:35:11 10° SSW
USA 215 3.3 11:25:00 10° SE 11:31:32 89° SW 11:37:55 11° NW
Cosmos 921 Rocket 4.4 11:30:39 18° WNW 11:31:51 20° W 11:35:07 10° SW
Cosmos 1833 4.3 11:27:43 10° NNW 11:33:20 62° WSW 11:38:58 10° S
H-2A R/B 4.1 11:31:42 10° NNW 11:34:45 17° WNW 11:36:49 10° WSW
Alouette 2 Rocket 4.2 11:33:56 10° N 11:37:31 46° ENE 11:41:01 10° SSE
H-2A R/B 2.3 11:33:58 10° SSE 11:38:10 70° ENE 11:42:30 10° N
Cosmos 1862 4.4 11:35:20 10° SW 11:38:24 22° WNW 11:41:31 10° NNW
Meteor 1-10 Rocket 4.3 11:33:27 10° NNW 11:38:51 54° W 11:44:13 10° S
Meteor 2-19 Rocket 4.4 11:34:03 10° SSW 11:40:03 66° W 11:46:06 10° N
Cosmos 1151 Rocket 4.4 11:42:45 11° NW 11:45:49 20° W 11:48:59 10° SW
H-2A R/B 3.8 11:42:14 10° NNE 11:46:44 35° E 11:51:13 10° SSE
Cosmos 2297 Rocket 4.2 11:46:13 10° N 11:50:45 24° NE 11:55:15 10° ESE
BREEZE-M DEB (TANK) 3.9 11:41:05 11° WNW 11:52:43 88° SW 11:56:15 10° SE
Cosmos 2369 Rocket 3.5 11:49:21 10° W 11:53:09 18° NW 11:56:58 10° N
SL-27 R/B 2.6 11:51:29 10° NNW 11:55:01 57° WSW 11:58:28 10° S
